Home > Time Zones > World Clock > Weather > Italy > Turin > Past weeks

Flag for Italy Weather past 2 weeks in Turin, Italy

Now
64 °F

Passing clouds.


Feels Like: 64 °F
Forecast: 65 / 78 °F
Wind: 3 mph from Northwest

Location: Torino / Bric Della Croce

Current Time: Aug 2, 2014 at 3:55:32 AM

Latest Report: Aug 2, 2014 at 2:55 AM


Visibility: N/A

Pressure: 29.89 "Hg

Humidity: 100%

Dew point: 64 °F

Location of TurinLocation

Historic Weather in Turin — Graph

°F

Turin temperature yesterday

Maximum temperature yesterday: 73 °F (at 5:55 PM)
Minimum temperature yesterday: 64 °F (at 7:55 AM)
Average temperature yesterday: 69 °F

Past Weeks' High & Low Weather Summary

 TemperatureHumidityPressure
High82 °F (Jul 18, 3:55 PM)100% (Jul 18, 5:55 AM)30.15 "Hg (Jul 18, 5:55 AM)
Low57 °F (Jul 29, 12:55 PM)47% (Jul 18, 1:55 AM)29.71 "Hg (Jul 30, 6:55 AM)
Average68 °F84%29.93 "Hg
* Reported Jul 18 1:55 AM — Aug 2 1:55 AM, Turin, Weather by CustomWeather, © 2014

Note: Actual official high and low records may vary slightly from our data, if they occured in-between our weather recording intervals... More about our weather records

Advertising

Turin weather history for previous 24 hours

 ConditionsComfort  
Time TempWeatherWind HumidityBarometerVisibility
1:55 AM
Aug 2
68 °FThunderstorms. Passing clouds.No wind100%29.89 "HgN/A
12:55 AM66 °FThunderstorms. Passing clouds.6 mph100%29.89 "HgN/A
11:55 PM
Aug 1
66 °FThunderstorms. Passing clouds.8 mph94%29.89 "HgN/A
10:55 PM68 °FClear.6 mph100%29.92 "Hg10 mi
9:55 PM68 °FSunny.6 mph94%29.89 "Hg10 mi
8:55 PM70 °FSunny.5 mph78%29.89 "Hg10 mi
7:55 PM72 °FPassing clouds.2 mph78%29.89 "HgN/A
6:55 PM73 °FPassing clouds.2 mph74%29.89 "HgN/A
5:55 PM73 °FPassing clouds.2 mph74%29.89 "HgN/A
4:55 PM70 °FScattered clouds.2 mph83%29.89 "HgN/A
3:55 PM70 °FScattered clouds.3 mph83%29.92 "HgN/A
2:55 PM70 °FScattered clouds.2 mph83%29.92 "HgN/A
1:55 PM70 °FScattered clouds.3 mph83%29.92 "HgN/A
12:55 PM68 °FScattered clouds.3 mph94%29.92 "HgN/A
11:55 AM68 °FScattered clouds.3 mph94%29.92 "HgN/A
10:55 AM66 °FPassing clouds.6 mph100%29.92 "HgN/A
9:55 AM64 °FPassing clouds.9 mph100%29.92 "HgN/A
8:55 AM64 °FPassing clouds.9 mph100%29.89 "HgN/A
7:55 AM64 °FSunny.9 mph100%29.89 "Hg10 mi
6:55 AM66 °FPassing clouds.7 mph100%29.92 "HgN/A
5:55 AM66 °FPassing clouds.9 mph100%29.92 "HgN/A
4:55 AM66 °FPassing clouds.8 mph100%29.92 "HgN/A
3:55 AM68 °FLight rain. Passing clouds.7 mph100%29.92 "HgN/A
Weather by CustomWeather, © 2014

See weather overviewHow to use our weather pages